Location: Newark
(25.4800°N, 85.7200°E)
Time: 17:30:59
(UTC+00:00)

Transit 4A - Pass Details

Date: 30 August 2019
Orbit: 866 x 978 km, 66.8° (Epoch: 15 October)

Event Time Altitude Azimuth Distance (km) Brightness Sun altitude
Rises 08:32:46 0° 162° (SSE) 3,633 11.0 54.0°
Reaches altitude 10° 08:36:13 10° 143° (SE) 2,703 10.3 53.3°
Maximum altitude 08:40:12 18° 104° (ESE) 2,217 9.8 52.4°
Drops below altitude 10° 08:44:12 10° 65° (ENE) 2,724 10.1 51.6°
Sets 08:47:39 0° 47° (NE) 3,674 10.7 50.8°
